EW6663 Weather Reports


Display with metric or nautical units.
time (UTC)temp
F
wind
direction
speed
MPH
gust
MPH
rain 1hr
in
rain 24hr
in
rain mn
in
humidity
%
barometer
mb
20260505021534 59 313 2.0 10.0 0.00 0.00 0.00 41 1013.1
20260505020008 60 49 6.0 13.0 0.00 0.00 0.00 41 1013.0
20260505014538 60 337 3.0 9.0 0.00 0.00 0.00 41 1012.8
20260505013102 61 327 4.0 8.0 0.00 0.00 0.00 40 1012.8
20260505011547 62 322 6.0 11.0 0.00 0.00 0.00 39 1012.8
20260505010009 63 11 7.0 15.0 0.00 0.00 0.00 38 1012.7
20260505004555 64 19 4.0 10.0 0.00 0.00 0.00 38 1012.7
20260505003037 65 338 6.0 11.0 0.00 0.00 0.00 36 1012.6
20260505001512 64 9 4.0 8.0 0.00 0.00 0.00 39 1012.6
20260505000025 64 335 3.0 11.0 0.00 0.00 0.00 38 1012.5
20260504234559 65 336 8.0 13.0 0.00 0.00 0.00 37 1012.5
20260504233039 65 318 10.0 16.0 0.00 0.00 0.00 37 1012.4
20260504231509 65 334 10.0 18.0 0.00 0.00 0.00 38 1012.4
20260504230040 65 329 10.0 17.0 0.00 0.00 0.00 37 1012.3
20260504224512 66 5 7.0 21.0 0.00 0.00 0.00 37 1012.3
20260504223048 66 319 11.0 19.0 0.00 0.00 0.00 36 1012.2
20260504221522 66 332 12.0 18.0 0.00 0.00 0.00 34 1012.1
20260504220036 67 346 10.0 18.0 0.00 0.00 0.00 35 1012.1
20260504214537 67 329 10.0 15.0 0.00 0.00 0.00 35 1012.3
20260504213042 66 318 8.0 17.0 0.00 0.00 0.00 37 1012.3
20260504211515 66 315 10.0 15.0 0.00 0.00 0.00 36 1012.3
20260504210028 66 316 12.0 17.0 0.00 0.00 0.00 36 1012.4
20260504204553 68 323 9.0 17.0 0.00 0.00 0.00 34 1012.5
20260504203053 69 5 5.0 12.0 0.00 0.00 0.00 36 1012.6
20260504201612 68 333 4.0 8.0 0.00 0.00 0.00 37 1012.6
20260504200026 69 316 5.0 13.0 0.00 0.00 0.00 36 1012.7
20260504194552 69 317 7.0 13.0 0.00 0.00 0.00 36 1012.7
20260504193019 69 317 7.0 12.0 0.00 0.00 0.00 36 1012.9
20260504191548 69 30 0.0 4.0 0.00 0.00 0.00 38 1013.1
20260504190002 68 42 0.0 3.0 0.00 0.00 0.00 38 1013.2
20260504184549 64 41 0.0 2.0 0.00 0.00 0.00 43 1013.3
20260504183016 62 41 0.0 3.0 0.00 0.00 0.00 51 1013.4
20260504181533 62 41 1.0 4.0 0.00 0.00 0.00 47 1013.5
20260504180004 64 26 0.0 2.0 0.00 0.00 0.00 46 1013.5
20260504174530 64 21 0.0 1.0 0.00 0.00 0.00 39 1013.7
20260504171510 61 20 0.0 1.0 0.00 0.00 0.00 43 1013.7
20260504150144 57 311 9.0 16.0 0.00 0.00 0.00 47 1014.1
20260504081602 50 175 0.0 6.0 0.00 0.00 0.00 67 1011.1
20260504070138 47 164 0.0 0.0 0.00 0.00 0.00 71 1010.6
20260504044536 53 164 1.0 4.0 0.00 0.00 0.00 69 1010.5
20260504041529 54 164 0.0 0.0 0.00 0.00 0.00 73 1010.4
20260504040051 52 164 2.0 7.0 0.00 0.00 0.00 70 1010.2
20260504034518 53 164 4.0 8.0 0.00 0.00 0.00 69 1010.1
20260504033058 53 164 1.0 8.0 0.00 0.00 0.00 70 1009.9
20260504031518 53 163 2.0 8.0 0.00 0.00 0.00 71 1009.7
20260504030110 55 163 3.0 7.0 0.00 0.00 0.00 70 1009.5
20260504024531 58 161 4.0 6.0 0.00 0.00 0.00 66 1009.4
20260504023004 66 162 0.0 2.0 0.00 0.00 0.00 51 1009.4